Location: Newark
(45.2500°N, 7.7167°E)
Time: 10:53:07
(UTC+00:00)

N. Korean satellite - Visible Passes

Search period start: 15 October 2019 00:00
Search period end: 25 October 2019 00:00
Orbit: 455 x 508 km, 97.2° (Epoch: 14 October)

Date Brightness Start Highest point End Pass type
(mag) Time Alt. Az. Time Alt. Az. Time Alt. Az.
15 Oct 10.0 17:34:14 10° SW 17:36:22 15° W 17:38:31 10° NW visible
16 Oct 8.7 04:56:58 10° NNE 05:00:14 32° E 05:03:31 10° SSE visible
16 Oct 8.8 17:07:51 10° SSW 17:10:55 30° W 17:14:00 10° NNW visible
17 Oct 10.0 04:32:24 10° NE 04:34:47 17° E 04:37:12 10° SE visible
19 Oct 7.5 05:14:14 10° NNE 05:17:47 54° E 05:21:22 10° S visible
19 Oct 9.8 17:25:59 10° SW 17:28:30 19° W 17:31:02 10° NW visible
20 Oct 9.1 04:49:18 10° NE 04:52:24 27° E 04:55:33 10° SSE visible
21 Oct 10.2 04:24:57 10° ENE 04:26:56 14° E 04:28:56 10° SE visible
22 Oct 10.3 17:44:45 10° WSW 17:46:06 12° W 17:47:29 10° WNW visible
23 Oct 8.0 05:06:27 10° NNE 05:09:58 44° E 05:13:29 10° S visible
23 Oct 9.3 17:17:47 10° SSW 17:20:35 23° W 17:23:26 10° NW visible
24 Oct 9.5 04:41:37 10° NE 04:44:32 22° E 04:47:29 10° SSE visible
24 Oct 7.7 16:51:50 10° S 16:55:09 48° W 16:58:33 10° NNW visible
